Starlink 31776

operational
NORAD ID: 59603 Int'l Des: 2024-080 Owner: SPXS Country: US Constellation: starlink
LEOCIRCULAR

关于 Starlink 31776

正在加载描述...

实时位置

正在加载3D地球...

即将过境

高度历史

Altitude vs Time

uPlot chart will show altitude changes over time

两行轨道根数

1 59603U 24080C 25258.41489241 .00001941 00000-0 80042-4 0 9995
2 59603 43.0038 311.4844 0001212 256.6700 103.4017 15.27581478 77682
Epoch: Sep 15, 2025 • Age: 13 hours

当前状态

高度 483.5 km
速度 7.63 km/s
星下点 24.77°N, 2.69°E
发射日期 Apr 28, 2024
运行时间 1.3 years
类型 internet

技术详情

分类 Payload
质量 730.00 kg
干质量 700.00 kg
总质量 730.00 kg
长度 0.30 m
直径 4.10 m
跨度 29.00 m
形状 Box + pan
制造商 SPXS
平台类型 Starlink V2M
阶段状态 In Orbit
所有者/国家 SPXS/US

大型星座

Loading constellations...